Flag for Germany Weather past 2 weeks in Viernheim, Hesse, Germany

Now
79 °F

Sunny.


Feels Like: 82 °F
Forecast: 64 / 74 °F
Wind: 3 mph from North

Location: Baden Wurttemberg - Neuostheim

Current Time: Jul 7, 2015 at 8:38:46 PM

Latest Report: Jul 7, 2015 at 7:50 PM


Visibility: 10 mi

Pressure: 29.74 "Hg

Humidity: 84%

Dew point: 73 °F

Location of ViernheimLocation

Historic Weather in Viernheim — Graph

°F

Viernheim temperature yesterday

Maximum temperature yesterday: 86 °F (at 5:50 PM)
Minimum temperature yesterday: 66 °F (at 5:50 AM)
Average temperature yesterday: 78 °F

Past Weeks' High & Low Weather Summary

 TemperatureHumidityPressure
High100 °F (Jul 4, 6:20 PM)100% (Jun 25, 4:50 AM)30.21 "Hg (Jun 25, 4:50 AM)
Low50 °F (Jun 23, 5:20 AM)24% (Jul 1, 2:50 PM)29.71 "Hg (Jul 7, 5:20 PM)
Average77 °F50%30.09 "Hg
* Reported Jun 22 7:20 PM — Jul 7 7:20 PM, Viernheim, Weather by CustomWeather, © 2015

Note: Actual official high and low records may vary slightly from our data, if they occured in-between our weather recording intervals... More about our weather records

Advertising

Viernheim weather history for previous 24 hours

 ConditionsComfort  
Time TempWeatherWind HumidityBarometerVisibility
7:20 PM
Tue, Jul 7
79 °FPassing clouds.5 mph79%29.74 "HgN/A
6:50 PM81 °FSunny.2 mph70%29.74 "Hg10 mi
6:20 PM82 °FThunderstorms. Broken clouds.7 mph66%29.74 "HgN/A
5:50 PM91 °FThundershowers. Scattered clouds.6 mph41%29.74 "HgN/A
5:20 PM95 °FThundershowers. Passing clouds.13 mph36%29.71 "HgN/A
4:50 PM95 °FPassing clouds.10 mph36%29.74 "HgN/A
4:20 PM95 °FPassing clouds.10 mph36%29.77 "HgN/A
3:50 PM93 °FPassing clouds.12 mph36%29.80 "HgN/A
3:20 PM91 °FPassing clouds.10 mph38%29.80 "HgN/A
2:50 PM91 °FPassing clouds.8 mph34%29.83 "HgN/A
2:20 PM90 °FPassing clouds.7 mph36%29.83 "HgN/A
1:50 PM90 °FPassing clouds.10 mph36%29.86 "HgN/A
1:20 PM90 °FSunny.6 mph31%29.86 "Hg10 mi
12:50 PM88 °FPassing clouds.7 mph33%29.86 "HgN/A
12:20 PM88 °FSunny.2 mph33%29.86 "Hg10 mi
11:50 AM88 °FSunny.2 mph33%29.89 "Hg10 mi
11:20 AM84 °FSunny.3 mph35%29.89 "Hg10 mi
10:50 AM82 °FSunny.2 mph37%29.92 "Hg10 mi
10:20 AM81 °FSunny.3 mph37%29.92 "Hg10 mi
9:50 AM79 °FSunny.2 mph37%29.92 "Hg10 mi
9:20 AM77 °FSunny.2 mph44%29.95 "Hg10 mi
8:50 AM75 °FSunny.2 mph47%29.95 "Hg10 mi
8:20 AM73 °FSunny.2 mph47%29.95 "Hg10 mi
7:50 AM72 °FSunny.1 mph53%29.98 "Hg10 mi
7:20 AM68 °FSunny.2 mph60%29.98 "Hg10 mi
6:50 AM68 °FSunny.2 mph64%29.98 "Hg10 mi
6:20 AM66 °FClear.3 mph68%29.98 "Hg10 mi
5:50 AM63 °FClear.2 mph77%29.98 "Hg10 mi
5:20 AM63 °FClear.1 mph77%29.98 "Hg10 mi
9:50 PM
Mon, Jul 6
79 °FSunny.3 mph37%30.07 "Hg10 mi
9:20 PM82 °FPleasantly warm.3 mph30%30.07 "HgN/A
8:50 PM82 °FPassing clouds.5 mph28%30.07 "HgN/A
8:20 PM84 °FSunny.3 mph25%30.07 "Hg10 mi
Weather by CustomWeather, © 2015

See weather overviewHow to use our weather pages